Home > Weather > Baghlan > Past weeks

Flag for Afghanistan Past Weather in Baghlan, Afghanistan — Yesterday and Last 2 Weeks

Now
97 °F

Passing clouds.


Feels Like: 92 °F
Forecast: 66 / 101 °F
Wind: 8 mph from Northwest

Location: Termez Airport

Current Time: May 26, 2016 at 5:14:45 PM

Latest Report: May 26, 2016 at 4:30 PM


Visibility: N/A

Pressure: 29.59 "Hg (27.89 "Hg at 536m altitude)

Humidity: 11%

Dew Point: 34 °F

Location of BaghlanLocation

Past Weather in Baghlan — Graph

°F

Baghlan Temperature Yesterday

Maximum temperature yesterday: 97 °F (at 1:30 PM)
Minimum temperature yesterday: 66 °F (at 5:30 AM)
Average temperature yesterday: 85 °F

High & Low Weather Summary for the Past Weeks

 TemperatureHumidityPressure
High100 °F (May 17, 2:30 PM)88% (May 14, 1:30 AM)29.98 "Hg (May 14, 1:30 AM)
Low61 °F (May 19, 5:30 AM)10% (May 26, 2:00 PM)29.56 "Hg (May 25, 4:30 PM)
Average82 °F36%29.80 "Hg
* Reported May 11 3:30 PM — May 26 3:30 PM, Baghlan, Weather by CustomWeather, © 2016

Note: Actual official high and low records may vary slightly from our data, if they occured in-between our weather recording intervals... More about our weather records

Advertising

Baghlan Weather History for the Previous 24 Hours

Scroll right to see more
 ConditionsComfort  
Time TempWeatherWind HumidityBarometerVisibility
3:30 PM
Thu, May 26
99 °FPassing clouds.5 mph12%29.59 "HgN/A
3:00 PM100 °FSunny.2 mph10%29.59 "Hg10 mi
2:30 PM99 °FSunny.3 mph12%29.62 "Hg10 mi
2:00 PM100 °FSunny.5 mph10%29.62 "Hg10 mi
1:30 PM100 °FSunny.5 mph13%29.62 "Hg10 mi
1:00 PM99 °FSunny.2 mph13%29.62 "Hg10 mi
12:30 PM99 °FPassing clouds.3 mph12%29.62 "HgN/A
12:00 PM97 °FPassing clouds.3 mph16%29.65 "HgN/A
11:30 AM95 °FSunny.2 mph20%29.65 "Hg10 mi
11:00 AM93 °FPassing clouds.3 mph20%29.65 "HgN/A
10:30 AM93 °FSunny.2 mph20%29.65 "Hg10 mi
10:00 AM91 °FPassing clouds.3 mph24%29.65 "HgN/A
9:30 AM90 °FPassing clouds.5 mph24%29.65 "HgN/A
9:00 AM88 °FPassing clouds.5 mph27%29.65 "HgN/A
8:30 AM86 °FSunny.2 mph33%29.65 "Hg10 mi
8:00 AM82 °FSunny.No wind37%29.65 "Hg10 mi
7:30 AM81 °FSunny.No wind37%29.65 "Hg10 mi
7:00 AM79 °FSunny.No wind42%29.65 "Hg10 mi
6:30 AM75 °FPassing clouds.3 mph47%29.62 "HgN/A
6:00 AM72 °FSunny.5 mph50%29.62 "Hg10 mi
5:30 AM70 °FSunny.6 mph53%29.62 "Hg10 mi
4:30 AM72 °FClear.8 mph44%29.59 "Hg10 mi
4:00 AM72 °FClear.8 mph44%29.59 "Hg10 mi
3:30 AM73 °FClear.8 mph38%29.56 "Hg10 mi
2:30 AM73 °FClear.7 mph41%29.56 "Hg10 mi
2:00 AM73 °FClear.9 mph44%29.56 "Hg10 mi
1:30 AM75 °FClear.9 mph44%29.56 "Hg10 mi
1:00 AM75 °FClear.10 mph44%29.56 "Hg10 mi
12:30 AM75 °FClear.8 mph39%29.56 "Hg10 mi
12:00 AM77 °FClear.9 mph36%29.56 "Hg10 mi
11:30 PM
Wed, May 25
77 °FClear.8 mph36%29.56 "Hg10 mi
11:00 PM79 °FClear.8 mph32%29.56 "Hg10 mi
10:30 PM75 °FClear.6 mph39%29.56 "Hg10 mi
10:00 PM77 °FClear.5 mph36%29.56 "Hg10 mi
9:30 PM77 °FClear.5 mph39%29.56 "Hg10 mi
9:00 PM79 °FClear.7 mph30%29.56 "Hg10 mi
8:30 PM82 °FClear.6 mph28%29.56 "Hg10 mi
8:00 PM88 °FClear.3 mph21%29.56 "Hg10 mi
7:30 PM88 °FClear.1 mph18%29.56 "Hg10 mi
7:00 PM91 °FPassing clouds.No wind14%29.56 "HgN/A
6:30 PM93 °FPassing clouds.No wind15%29.56 "HgN/A
6:00 PM97 °FPassing clouds.No wind18%29.56 "HgN/A
5:30 PM95 °FPassing clouds.No wind13%29.56 "HgN/A
5:00 PM97 °FPassing clouds.3 mph13%29.56 "HgN/A
Weather by CustomWeather, © 2016

See weather overviewHow to use our weather pages